User: anonymous   Login
Location: Laterina
(43.5167°N, 11.7167°E)
Time: 15:35:04
(UTC+00:00)
Language:

Cosmos 1844 - Orbit

View from above orbital plane
View from above orbital plane
View from above satellite
View from above satellite

Ground track
Ground track

The orbit data is extracted from the following two-line orbital elements,

1 17973U 87041A   20340.47476403 -.00000374  00000-0 -17036-3 0  9997
2 17973  70.8967 122.5949 0030189  19.5671 340.6602 14.14111413732293
Epoch (UTC): 05 December 2020 11:23:39
Eccentricity: 0.0030189
inclination: 70.8967°
perigee height: 823 km
apogee height: 867 km
right ascension of ascending node: 122.5949°
argument of perigee: 19.5671°
revolutions per day: 14.14111413
mean anomaly at epoch: 340.6602°
orbit number at epoch: 73229

The dashed part of the orbit path shows where the satellite is in the earth's shadow,  

DLR